Wind_Speed
19 19 19 19 19 19 19 19 19 19 19 19 19 19 19 20 20 20 20 19 19 19 20 20 20 19 20 20 20 20 20 20 20 20 19 19 20 20 20 20 20 19 19
20 20 20 20 20 21 21 21 20 20 20 20 21 21 20 21 21 20 20 20 20 20 20 20 20 21 21 21 21 21 21 20 20 20 19 20 20 21 21 21 21 20 20
20 20 20 20 20 21 21 22 22 21 21 22 22 22 21 21 21 21 20 20 21 21 21 22 21 21 21 22 21 21 22 22 21 20 20 20 20 21 22 22 22 22 21
20 20 20 21 21 21 21 22 22 22 22 22 22 22 22 22 22 22 21 21 22 22 22 23 23 22 22 22 22 22 23 23 23 22 22 21 21 22 23 23 24 24 23
20 20 21 21 21 22 22 23 23 23 22 23 23 22 22 22 22 22 23 22 22 22 23 23 23 23 22 23 23 23 23 23 23 23 23 23 23 24 24 25 25 25 25
21 21 21 22 23 23 23 23 24 24 24 24 24 23 23 23 23 23 23 23 23 23 23 23 24 24 24 23 23 24 23 23 23 23 23 24 24 25 26 26 26 26 27
22 22 22 23 23 24 24 24 25 25 25 25 25 24 24 24 24 24 23 23 23 23 24 24 25 25 25 26 26 25 25 25 25 24 25 25 26 26 26 27 28 28 28
23 24 24 24 24 25 25 25 25 25 25 25 25 24 24 24 25 25 25 25 24 24 24 24 24 25 25 25 26 26 26 25 25 25 26 26 27 27 28 28 29 29 29
24 24 25 25 25 26 27 26 26 26 26 26 25 25 26 25 26 26 26 26 25 25 25 25 25 24 25 26 27 27 27 27 27 27 27 27 27 27 28 29 29 30 30
25 26 26 27 27 27 27 27 27 27 27 27 27 27 27 27 27 27 27 27 26 26 26 26 26 26 27 28 28 29 29 28 28 28 28 28 27 27 27 28 29 30 30
27 27 27 27 28 28 28 28 27 27 28 28 28 29 28 28 28 27 27 27 27 27 27 27 28 28 27 28 28 28 29 29 28 28 28 28 27 27 28 28 29 30 30
28 27 28 27 28 28 28 28 28 28 29 30 30 30 29 29 29 28 28 28 28 28 27 28 28 28 28 28 28 28 28 28 28 28 28 28 28 28 29 30 30 30 30
28 27 27 27 27 27 28 28 29 29 30 30 30 30 30 29 29 30 30 29 29 28 28 28 28 28 28 28 29 29 29 29 29 28 28 28 28 29 29 30 31 31 31
28 27 27 27 27 27 28 28 29 29 30 30 30 29 29 30 30 30 30 30 29 29 28 28 28 28 27 28 29 29 28 29 29 29 29 29 29 29 29 29 30 31 31
27 27 26 26 26 26 27 27 28 28 28 29 29 29 29 29 29 29 28 28 28 28 29 29 28 28 27 27 28 28 28 29 29 29 29 29 29 29 29 30 30 31 31
26 26 25 25 25 26 27 27 27 28 28 28 29 30 29 29 29 28 28 28 28 28 27 27 27 27 27 28 28 29 29 29 29 29 30 30 30 30 30 31 31 31 31
26 25 25 25 25 26 27 28 28 28 28 29 29 29 29 28 28 28 28 28 29 29 28 27 27 27 27 27 29 29 29 29 30 30 30 30 31 31 31 32 32 32 32
26 26 26 26 25 25 26 27 28 29 29 29 29 29 29 29 29 28 28 28 28 29 28 28 28 28 28 27 28 28 29 29 29 30 30 31 31 31 31 31 32 32 33
26 26 27 27 27 27 27 27 28 28 29 29 29 29 29 29 29 29 28 27 27 28 28 28 28 28 28 28 28 28 28 29 29 30 31 31 31 31 31 32 32 32 32
26 26 27 28 28 27 28 27 27 26 27 28 28 29 29 29 29 29 28 28 28 28 28 28 28 28 28 29 28 28 29 29 29 29 30 31 31 32 32 32 31 31 31
27 27 27 27 27 27 27 27 27 27 27 27 28 29 28 27 28 28 28 28 28 28 28 28 28 28 28 28 28 29 29 29 29 30 30 31 31 31 31 31 31 31 31
27 26 26 26 26 26 26 27 27 28 28 27 27 27 27 27 27 26 27 28 28 28 27 27 27 27 28 28 28 28 28 28 29 29 30 30 30 30 30 30 31 31 31
26 26 26 26 26 26 27 27 27 28 28 27 28 28 27 27 28 27 27 27 27 27 27 27 27 28 28 28 28 28 28 28 28 28 28 29 29 30 30 30 30 30 30
25 26 26 27 27 27 28 28 28 28 29 29 29 29 29 29 29 28 28 27 27 26 26 26 27 27 27 27 28 28 28 27 28 28 28 28 28 29 29 29 30 29 29
27 27 28 28 28 28 28 27 27 28 29 29 29 28 29 29 29 28 28 27 27 27 27 28 28 27 27 27 27 27 27 28 28 28 28 28 28 28 29 29 29 29 30
28 29 29 29 29 29 29 29 29 29 29 29 28 28 29 29 28 29 28 28 28 28 28 28 28 28 28 28 28 28 28 29 29 29 28 28 28 28 28 28 28 29 29
Wind_Direction
281 280 281 280 279 279 281 282 282 281 284 286 287 289 289 289 287 283 282 281 279 278 277 276 275 275 274 273 270 265 263 264 262 259 257 255 254 252 253 253 251 247 247
281 280 280 279 278 279 281 282 283 283 283 285 287 290 289 288 288 284 281 280 279 277 276 276 275 275 273 273 270 265 263 263 262 260 258 256 255 254 253 250 247 248 248
280 280 281 281 279 279 280 281 282 286 286 285 288 288 287 285 285 283 281 280 278 276 275 274 275 274 273 271 270 267 263 262 262 261 260 258 258 257 253 249 247 249 249
281 281 280 280 280 280 280 282 283 286 287 287 288 288 287 285 285 283 281 281 279 276 275 274 273 273 272 271 270 267 264 264 263 262 260 261 260 257 254 251 250 252 251
282 282 280 278 279 280 281 283 284 285 286 288 288 288 286 285 284 283 282 282 280 277 275 274 272 272 272 270 268 266 264 265 265 263 262 264 263 258 254 252 252 253 252
282 282 281 279 279 281 280 282 284 286 287 288 289 286 285 284 284 284 282 282 279 276 275 273 272 271 270 269 267 265 265 266 266 265 264 266 264 260 257 255 254 254 254
283 282 282 281 280 281 281 281 282 284 286 287 288 287 285 283 282 282 282 283 281 278 276 274 271 271 271 268 266 266 265 265 267 266 266 265 265 261 259 257 257 257 257
283 282 282 281 281 281 282 281 281 282 284 286 286 286 285 282 281 281 281 282 281 280 280 278 275 273 272 270 267 265 265 265 268 269 266 266 265 262 259 258 258 257 256
282 283 282 281 281 282 282 281 280 281 283 285 285 283 283 281 280 279 280 280 280 278 278 278 276 273 271 270 268 266 266 267 269 270 265 264 264 262 259 259 258 258 257
285 284 282 281 281 280 281 280 279 279 281 284 284 284 283 282 281 279 279 278 278 278 276 276 276 274 271 268 268 267 267 267 268 268 264 264 264 262 261 259 260 259 258
285 284 284 283 282 282 281 281 280 280 281 283 283 282 282 282 282 280 279 279 279 279 277 276 275 274 274 271 270 268 266 266 267 267 265 264 265 264 262 260 261 260 258
285 284 283 283 283 282 281 281 281 281 283 285 283 282 282 282 281 281 280 279 279 278 278 276 275 275 275 273 271 269 267 265 266 266 265 265 266 266 264 261 261 261 259
285 285 284 283 283 282 281 282 282 281 282 285 285 284 282 281 282 281 279 279 279 278 278 277 276 275 275 274 272 271 269 267 265 266 268 267 266 266 265 262 260 260 261
286 285 285 285 284 283 282 282 284 284 284 283 283 283 283 282 282 282 279 277 277 279 278 277 276 274 274 274 273 271 269 268 267 267 269 267 267 267 265 264 262 262 262
286 286 284 284 284 284 285 285 287 286 285 284 284 283 284 284 283 282 280 278 277 277 277 277 275 273 273 273 273 272 270 269 269 269 268 267 267 266 265 265 264 264 264
284 285 285 285 286 286 286 286 286 287 288 286 285 285 283 284 284 281 278 278 278 278 278 277 275 273 271 271 272 272 271 269 270 270 269 268 267 266 266 265 263 263 265
284 284 284 286 286 285 286 287 287 287 287 287 286 285 283 283 284 283 281 279 279 280 279 278 277 275 274 274 273 272 271 270 271 271 270 269 268 266 266 266 266 265 265
285 285 285 284 285 286 287 288 288 287 287 287 286 284 283 283 283 284 283 280 279 279 278 278 278 277 277 276 275 273 271 271 271 271 271 271 270 269 267 267 266 266 265
286 286 285 284 284 285 288 288 287 286 287 287 286 286 284 283 282 282 282 280 279 278 278 278 278 278 278 277 277 274 272 272 271 272 272 271 270 270 268 267 268 269 267
286 286 286 285 285 285 287 287 287 287 289 288 287 288 287 283 282 281 280 279 278 278 278 278 278 278 278 277 278 277 275 273 272 272 272 272 272 271 270 268 269 270 270
286 285 286 285 285 286 287 287 287 289 290 289 288 288 288 287 285 282 280 280 280 279 278 278 278 278 277 278 278 278 276 274 274 273 273 273 272 271 271 270 270 270 271
286 285 285 285 287 288 288 288 288 289 289 289 289 290 288 287 286 285 283 281 280 279 279 278 277 277 278 278 279 278 277 276 275 274 274 273 271 270 270 270 271 271 272
283 284 285 286 287 290 291 289 288 288 288 288 289 289 288 288 287 285 284 282 280 279 279 280 280 279 277 278 279 279 279 278 277 276 275 274 273 271 271 271 272 272 272
284 286 287 288 288 290 291 291 289 288 288 288 288 287 287 287 285 283 281 280 280 279 280 281 281 281 280 280 280 279 278 278 278 276 276 275 274 272 271 271 271 271 271
285 286 288 289 289 290 291 291 292 291 291 290 290 290 289 287 284 283 282 281 280 280 280 280 281 281 281 282 281 279 279 279 279 279 278 276 275 274 273 272 272 272 271
284 285 286 288 288 289 289 289 290 291 291 290 289 290 290 289 287 285 285 283 282 282 280 280 280 281 282 283 282 280 279 278 278 278 278 277 277 277 275 274 274 273 272
Height
5792 5791 5790 5789 5788 5787 5786 5785 5784 5783 5782 5780 5778 5777 5775 5774 5772 5771 5769 5768 5767 5766 5765 5764 5764 5763 5762 5762 5761 5761 5761 5761 5761 5761 5761 5762 5763 5764 5765 5766 5768 5769 5771
5786 5785 5784 5783 5782 5782 5780 5779 5778 5777 5776 5774 5772 5770 5769 5767 5765 5764 5763 5762 5761 5760 5759 5758 5757 5757 5756 5755 5755 5755 5754 5754 5755 5755 5755 5756 5757 5757 5758 5760 5761 5763 5765
5781 5780 5779 5778 5777 5776 5775 5773 5772 5770 5769 5768 5766 5764 5762 5760 5759 5758 5757 5755 5754 5753 5752 5752 5751 5750 5750 5749 5749 5748 5748 5748 5748 5749 5749 5749 5750 5751 5752 5753 5755 5757 5759
5775 5774 5773 5772 5771 5770 5768 5767 5766 5764 5763 5761 5759 5757 5755 5753 5752 5751 5750 5749 5748 5747 5746 5745 5744 5744 5743 5743 5742 5742 5742 5742 5742 5743 5743 5743 5743 5744 5745 5746 5748 5750 5752
5769 5768 5767 5765 5764 5763 5762 5760 5759 5758 5756 5754 5752 5750 5748 5747 5745 5744 5743 5741 5740 5739 5738 5738 5737 5737 5736 5736 5736 5735 5735 5735 5736 5736 5736 5736 5736 5736 5738 5739 5741 5742 5744
5763 5761 5760 5758 5757 5756 5755 5754 5752 5751 5749 5747 5745 5743 5741 5740 5738 5737 5736 5734 5733 5732 5731 5730 5730 5729 5729 5729 5729 5729 5729 5728 5729 5728 5729 5729 5729 5729 5730 5731 5733 5735 5737
5756 5755 5753 5752 5750 5749 5748 5746 5745 5744 5742 5740 5738 5736 5734 5733 5732 5730 5729 5727 5726 5725 5724 5723 5722 5722 5721 5721 5721 5721 5721 5721 5721 5721 5721 5721 5721 5722 5722 5724 5725 5727 5729
5749 5748 5746 5745 5743 5742 5740 5739 5737 5736 5734 5733 5731 5729 5727 5726 5724 5723 5721 5720 5719 5717 5716 5715 5714 5714 5714 5713 5713 5713 5714 5714 5713 5713 5713 5713 5713 5714 5715 5716 5717 5719 5720
5742 5740 5739 5737 5736 5734 5733 5731 5730 5728 5727 5725 5723 5721 5720 5718 5717 5715 5713 5712 5711 5710 5709 5708 5707 5707 5706 5706 5706 5706 5705 5705 5705 5705 5705 5705 5705 5706 5707 5708 5709 5710 5712
5734 5732 5731 5729 5728 5726 5724 5723 5721 5720 5718 5716 5715 5713 5712 5710 5708 5707 5705 5704 5703 5702 5701 5700 5699 5698 5698 5697 5697 5697 5697 5697 5697 5696 5696 5697 5697 5698 5698 5699 5700 5701 5702
5726 5724 5722 5721 5719 5717 5716 5714 5713 5711 5710 5708 5706 5705 5703 5701 5700 5698 5697 5696 5695 5694 5693 5692 5691 5690 5689 5689 5688 5688 5688 5688 5688 5688 5688 5688 5688 5689 5689 5690 5691 5692 5693
5717 5715 5714 5712 5710 5709 5707 5706 5704 5703 5701 5699 5697 5696 5694 5693 5691 5690 5688 5687 5686 5685 5684 5683 5682 5681 5680 5680 5679 5679 5679 5679 5679 5679 5679 5679 5679 5680 5680 5681 5681 5682 5683
5708 5706 5704 5703 5701 5700 5698 5697 5695 5694 5692 5691 5689 5687 5685 5684 5682 5681 5680 5678 5677 5676 5675 5674 5673 5673 5672 5671 5670 5670 5670 5669 5670 5670 5670 5670 5670 5671 5671 5671 5672 5673 5673
5699 5697 5696 5694 5692 5691 5690 5688 5687 5685 5683 5682 5680 5678 5677 5675 5673 5672 5670 5669 5668 5667 5666 5665 5664 5663 5663 5662 5661 5661 5660 5660 5660 5661 5661 5661 5662 5662 5662 5662 5663 5663 5664
5691 5689 5687 5685 5683 5682 5681 5680 5678 5676 5674 5673 5671 5670 5668 5666 5664 5663 5661 5660 5659 5658 5657 5656 5655 5654 5654 5653 5652 5652 5652 5652 5652 5652 5652 5652 5652 5653 5653 5653 5654 5654 5654
5683 5681 5679 5677 5675 5674 5672 5671 5669 5668 5666 5663 5662 5661 5659 5657 5655 5653 5652 5651 5650 5649 5648 5647 5646 5645 5645 5644 5644 5643 5643 5643 5642 5642 5643 5643 5643 5643 5644 5644 5644 5644 5645
5675 5673 5671 5669 5667 5665 5664 5662 5660 5659 5657 5655 5653 5651 5650 5648 5647 5645 5643 5642 5641 5640 5639 5638 5638 5637 5636 5636 5635 5635 5634 5634 5633 5633 5633 5633 5633 5633 5633 5634 5634 5634 5635
5666 5664 5662 5660 5658 5656 5655 5653 5651 5650 5648 5646 5644 5642 5641 5639 5638 5636 5635 5633 5633 5632 5631 5630 5630 5629 5628 5627 5627 5626 5625 5625 5625 5624 5624 5624 5624 5624 5624 5623 5623 5624 5624
5658 5656 5654 5651 5650 5648 5646 5644 5642 5641 5639 5637 5635 5633 5632 5630 5629 5627 5626 5625 5624 5623 5622 5622 5621 5620 5619 5619 5618 5617 5617 5616 5616 5616 5615 5615 5614 5614 5614 5614 5614 5614 5614
5649 5647 5645 5643 5641 5639 5637 5635 5633 5632 5630 5628 5627 5625 5623 5621 5620 5619 5617 5616 5615 5615 5614 5613 5612 5612 5611 5610 5609 5609 5608 5607 5607 5607 5606 5606 5605 5605 5605 5604 5604 5604 5604
5641 5639 5637 5634 5632 5630 5629 5627 5625 5623 5622 5620 5618 5616 5614 5613 5612 5610 5609 5608 5607 5606 5605 5604 5603 5603 5602 5601 5601 5600 5599 5598 5598 5597 5597 5596 5596 5596 5595 5595 5595 5594 5594
5632 5630 5629 5626 5624 5622 5621 5619 5617 5615 5613 5611 5609 5607 5606 5604 5603 5602 5600 5599 5598 5597 5597 5596 5595 5594 5593 5593 5592 5591 5590 5589 5589 5588 5587 5587 5586 5586 5586 5585 5585 5585 5584
5624 5622 5621 5619 5617 5615 5613 5611 5609 5607 5605 5603 5601 5599 5597 5596 5594 5593 5592 5591 5590 5589 5588 5587 5586 5585 5584 5584 5583 5582 5581 5580 5580 5579 5578 5578 5577 5577 5576 5576 5575 5575 5575
5616 5614 5613 5611 5608 5606 5605 5602 5600 5598 5596 5594 5593 5591 5589 5587 5586 5585 5583 5582 5581 5580 5579 5578 5577 5576 5576 5575 5574 5573 5572 5571 5570 5570 5569 5568 5568 5567 5567 5566 5566 5565 5565
5608 5606 5604 5602 5600 5598 5596 5594 5592 5590 5588 5586 5584 5582 5581 5579 5578 5576 5575 5573 5572 5571 5571 5570 5569 5568 5567 5566 5565 5564 5563 5562 5561 5560 5559 5559 5558 5558 5557 5557 5556 5555 5555
5599 5597 5596 5594 5592 5590 5588 5586 5584 5582 5580 5578 5576 5574 5572 5570 5569 5567 5566 5565 5564 5563 5562 5561 5560 5559 5558 5557 5556 5555 5554 5553 5552 5551 5550 5549 5549 5548 5548 5547 5546 5546 5545